Location: Hains Lake
(37.8540°N, 99.8578°W)
Time: 10:23:39
(UTC+00:00)

Tiros 1 despin weight - Pass Details

Date: 24 April 2021
Orbit: 593 x 642 km, 48.2° (Epoch: 07 May)

Event Time Altitude Azimuth Distance (km) Brightness Sun altitude
Rises 07:52:57 0° 179° (S) 2,924 - -36.2°
Reaches altitude 10° 07:57:10 10° 143° (SE) 2,015 - -35.9°
Maximum altitude 07:58:17 11° 129° (SE) 1,960 - -35.8°
Drops below altitude 10° 07:59:26 10° 114° (ESE) 2,013 - -35.7°
Exits shadow 08:02:01 - 88° (E) 2,475 ? -35.4°
Sets 08:03:37 0° 78° (ENE) 2,915 ? -35.3°
